x

Silver Bay, Mn (slvm5) Weather Station

3:40am - Sat 2nd Jul 2016 All times are CDT. -5 hours from GMT.

  • Wind
    10mph, 15mph gusts
  • Air Temp 64°f
  • Sea Pressure 1018.6mb
  • Silver Bay, Mn
  • Silver Bay, Mn

More Historic Weather Station data

Upgrade to MSW Pro to gain access to the past 30 days of data for over 8000 Wavebouys and Weather Stations around the globe.

Join Pro

Comparision Forecast

View Surf forecast
   
Sat 07/02 3:40am 10 15 mph 1018.6mb 64f
3:30am 9 14 mph 1018.6mb 63f
3:20am 9 16 mph 1018.6mb 64f
3:10am 10 15 mph 1018.6mb 64f
3:01am 10 16 mph 1018.6mb 64f
3:00am 10 16 mph 1018.6mb 64f
2:40am 10 15 mph 1018.6mb 63f
2:30am 10 15 mph 1018.6mb 62f
2:20am 9 15 mph 1019mb 63f
2:10am 9 14 mph 1019mb 63f
2:00am 10 16 mph 1019mb 62f
1:40am 7 13 mph 1019mb 62f
1:30am 8 13 mph 1019.3mb 63f
1:20am 9 14 mph 1019.3mb 63f
1:10am 8 16 mph 1019.3mb 63f
1:00am 11 20 mph 1019.3mb 62f
12:40am 6 9 mph 1019.3mb 62f
12:30am 5 7 mph 1019.3mb 62f
12:20am 5 8 mph 1019.3mb 62f
12:10am 3 9 mph 1019.3mb 62f
12:00am 5 11 mph 1019mb 62f
Fri 07/01 11:40pm 5 9 mph 1019mb 63f
11:30pm 6 10 mph 1019mb 63f
11:20pm 6 9 mph 1019mb 63f
11:10pm 6 8 mph 1019mb 62f
11:00pm 6 9 mph 1019mb 63f
10:40pm 6 8 mph 1019mb 63f
10:30pm 6 9 mph 1019mb 64f
10:20pm 7 9 mph 1019mb 64f
10:10pm 5 7 mph 1019mb 65f
10:00pm 5 7 mph 1019mb 65f
9:40pm 6 8 mph 1019mb 65f
9:30pm 7 9 mph 1018.6mb 62f
9:20pm 6 8 mph 1018.6mb 58f
9:10pm 5 7 mph 1018.6mb 58f
9:00pm 3 6 mph 1018.3mb 57f
8:40pm 2 3 mph 1018.3mb 56f
8:30pm 1 6 mph 1018.3mb 54f
8:20pm 6 11 mph 1018.3mb 53f
8:10pm 10
mph
1018.3mb 56f
8:03pm 8 17 mph 1018.3mb 58f
8:00pm 9 14 mph 1018.3mb 58f
7:40pm 11 13 mph 1018.3mb 59f
7:30pm 11 15 mph 1018.3mb 59f
7:20pm 14 17 mph 1018.3mb 61f
7:10pm 13 16 mph 1018.3mb 62f
7:02pm 14 15 mph 1018.3mb 62f
7:00pm 15 18 mph 1018.3mb 62f
6:40pm 16 22 mph 1018.3mb 56f
6:30pm 20 21 mph 1018.3mb 60f
6:20pm 16 21 mph 1018.3mb 58f
6:10pm 15 18 mph 1018.6mb 58f
6:02pm 15 24 mph 1018.6mb 58f
6:00pm 14 24 mph 1018.6mb 58f
5:40pm 20 21 mph 1018.6mb 57f
5:30pm 17 24 mph 1018.6mb 56f
5:20pm 17 22 mph 1018.6mb 55f
5:10pm 20 21 mph 1018.6mb 56f
5:02pm 18 22 mph 1018.6mb 55f
5:00pm 20 21 mph 1018.6mb 55f
4:40pm 18 21 mph 1019mb 55f
4:30pm 17 18 mph 1019mb 55f
4:20pm 17 18 mph 1019mb 56f
4:10pm 16 18 mph 1019.3mb 56f
4:01pm 18 23 mph 1019.3mb 54f
4:00pm 18 20 mph 1019.3mb 54f
3:40pm 15 17 mph 1019.6mb 54f
3:30pm 17 18 mph 1019.6mb 53f
3:20pm 17 21 mph 1019.6mb 54f
3:10pm 20 23 mph 1020mb 56f
3:01pm 20 22 mph 1020mb 54f
3:00pm 20 21 mph 1020mb 54f
2:40pm 18 20 mph 1020mb 54f
2:30pm 18 22 mph 1020mb 54f
2:20pm 16 17 mph 1020mb 53f
2:10pm 16 17 mph 1020mb 53f
2:00pm 17 21 mph 1020mb 52f
1:40pm 16 18 mph 1020.3mb 53f
1:30pm 20 21 mph 1020.3mb 54f
1:20pm 18 20 mph 1020.3mb 53f
1:10pm 15 17 mph 1020.3mb 55f
1:00pm 17 21 mph 1020.3mb 53f
12:40pm 20 21 mph 1021mb 53f
12:30pm 17 20 mph 1021mb 52f
12:20pm 17 20 mph 1021mb 52f
12:10pm 17 20 mph 1020.7mb 51f
12:00pm 20
mph
1020.7mb 52f
11:40am 14 16 mph 1020.7mb -
11:30am 14 15 mph 1020.7mb -
11:20am 15 17 mph 1020.7mb -
11:10am 15 17 mph 1020.7mb -
11:00am 14 16 mph 1020.7mb -
10:40am 13 15 mph 1020.7mb -
10:30am 13 16 mph 1020.7mb -
10:20am 14 16 mph 1020.7mb -
10:10am 15 16 mph 1020.7mb -
10:00am 10 21 mph 1021mb -
9:40am 7 15 mph 1020.7mb 68f
9:30am 10 15 mph 1020.7mb 67f
9:20am 7 15 mph 1020.7mb 67f
9:10am 9 14 mph 1020.7mb 67f
9:00am 8 14 mph 1020.7mb 66f
8:40am 7 15 mph 1020.3mb 64f
8:30am 10 20 mph 1020.3mb 63f
8:20am 10 18 mph 1020.3mb 63f
8:10am 10 21 mph 1020mb 62f
8:02am 15 26 mph 1020mb 61f
8:00am 13 23 mph 1020mb 61f
7:40am 16 26 mph 1020.3mb 60f
7:30am 15 23 mph 1020.3mb 60f
7:20am 17 22 mph 1020.3mb 59f
7:10am 17 26 mph 1020.3mb 58f
7:01am 16 26 mph 1020mb 58f
7:00am 16 22 mph 1020.3mb 58f
6:40am 16 25 mph 1020mb 56f
6:30am 14 24 mph 1020mb 56f
6:20am 17 26 mph 1020mb 55f
6:10am 17 26 mph 1020mb 55f
6:01am 17 25 mph 1020.3mb 54f
6:00am 17 23 mph 1020.3mb 54f
5:40am 13 24 mph 1020mb 54f
5:30am 17 24 mph 1020mb 55f
5:20am 15 23 mph 1020mb 54f
5:10am 7 22 mph 1020mb 55f
5:00am 10 16 mph 1020mb 54f
4:40am 2 7 mph 1020mb 52f
4:30am 3 6 mph 1020.3mb 52f
4:20am 3 5 mph 1020mb 51f
4:10am 2 5 mph 1020mb 50f
4:00am 3 11 mph 1020mb 52f
3:50am 5 9 mph 1020mb 50f
3:40am 6 8 mph 1020mb 50f
3:30am 5 8 mph 1020mb 51f
3:20am 7 10 mph 1020mb 50f
3:10am 9 11 mph 1020mb 50f
3:00am 10 20 mph 1020mb 51f
2:50am 7 10 mph 1020mb 52f
2:40am 6 10 mph 1020mb 51f
2:30am 7 20 mph 1020mb 52f
2:20am 10 20 mph 1019.6mb 52f
2:10am 9 16 mph 1019.6mb 53f
2:00am 11 16 mph 1019.6mb 53f
1:50am 8 14 mph 1019.6mb 53f
1:40am 6 10 mph 1019.6mb 52f
1:30am 1 7 mph 1019.6mb 52f
1:20am 5 10 mph 1019.6mb 53f
1:10am 5 10 mph 1019.6mb 52f
1:00am 3 14 mph 1019.3mb 54f
12:50am 9 13 mph 1019.3mb 54f
12:40am 6 13 mph 1019.3mb 54f
12:30am 8 14 mph 1019.3mb 54f
12:20am 6 11 mph 1019mb 54f
12:10am 5 9 mph 1019mb 53f
12:00am 3 16 mph 1019mb 54f
Thu 06/30 11:50pm 5 11 mph 1019.3mb 54f
11:40pm 8 10 mph 1019.3mb 54f
11:30pm 7 14 mph 1019.3mb 55f
11:20pm 7 13 mph 1019.3mb 55f
11:10pm 8 15 mph 1019.3mb 55f
11:00pm 9 16 mph 1019mb 54f
10:50pm 5 13 mph 1019.3mb 55f
10:40pm 5 8 mph 1019.3mb 55f
10:30pm 5 8 mph 1019.3mb 55f
10:20pm 6 10 mph 1019.3mb 55f
10:10pm 7 10 mph 1019.3mb 55f
10:01pm 6 11 mph 1019.3mb 55f
10:00pm 6 11 mph 1019.3mb 55f
9:50pm 5 9 mph 1019mb 55f
9:40pm 6 10 mph 1019mb 54f
9:30pm 5 9 mph 1018.6mb 55f
9:20pm 3 11 mph 1018.6mb 56f
9:10pm 6 10 mph 1018.3mb 56f
9:01pm 2 24 mph 1018.3mb 57f
9:00pm 2 9 mph 1018.3mb 57f
8:50pm 8 13 mph 1018.3mb 57f
8:40pm 7 16 mph 1017.9mb 57f
8:30pm 7 18 mph 1017.9mb 58f
8:20pm 11 24 mph 1017.9mb 58f
8:10pm 14 23 mph 1017.9mb 59f
8:00pm 14 20 mph 1017.6mb 60f
7:40pm 11 21 mph 1017.3mb 61f
7:30pm 9 15 mph 1016.9mb 61f
7:20pm 10 17 mph 1016.9mb 62f
7:10pm 9 16 mph 1017.3mb 61f
7:00pm 7 11 mph 1016.9mb 56f
6:50pm 8 11 mph 1016.9mb 59f
6:00pm 9 17 mph 1015.9mb 57f
5:40pm 7 13 mph 1015.9mb 56f
5:30pm 10 16 mph 1015.6mb 53f
5:20pm 10 17 mph 1015.6mb 54f
5:10pm 8 13 mph 1015.6mb 51f
5:00pm 8 11 mph 1015.6mb 56f
4:50pm 8 16 mph 1015.2mb 58f
4:40pm 11 16 mph 1015.2mb 57f
4:30pm 11 15 mph 1014.9mb 62f
4:20pm 6 10 mph 1014.9mb 63f
4:10pm 2 5 mph 1014.6mb 61f
4:00pm 3 25 mph 1014.6mb 60f
3:50pm 6 10 mph 1014.9mb 60f
3:40pm 8 10 mph 1014.6mb 63f
3:30pm 3 9 mph 1014.6mb 61f
3:20pm 5 10 mph 1014.6mb 61f
3:10pm 5 11 mph 1014.6mb 63f
3:00pm 8 16 mph 1014.6mb 63f
2:50pm 7 14 mph 1014.2mb 63f
2:40pm 10 15 mph 1014.2mb 61f
2:30pm 8 25 mph 1014.2mb 60f
2:20pm 3 7 mph 1014.2mb 58f
2:10pm 2 8 mph 1014.2mb 60f
2:00pm 5 10 mph 1013.9mb 55f
1:50pm 8 13 mph 1013.9mb 52f
1:40pm 9 13 mph 1013.5mb 59f
1:30pm 10 15 mph 1013.2mb 59f
1:20pm 9 21 mph 1013.2mb 58f
1:10pm 16 22 mph 1013.5mb 58f
1:00pm 18
mph
1013.9mb 61f
12:50pm 15 22 mph 1013.5mb 62f
12:40pm 10 11 mph 1013.2mb 59f
12:30pm 7 9 mph 1013.2mb 60f
12:20pm 8 9 mph 1013.2mb 61f
12:10pm 6
mph
1013.2mb 59f
12:00pm 3 13 mph 1013.2mb 55f
11:50am 3 7 mph 1013.5mb 56f
11:40am 3 7 mph 1013.5mb 59f
11:30am 5 7 mph 1013.5mb 56f
11:20am 2 3 mph 1013.5mb 56f
11:10am 1 6 mph 1013.9mb 55f
11:00am 3 7 mph 1013.5mb 59f
10:50am 3 7 mph 1013.5mb 56f
10:40am 1 7 mph 1013.5mb 55f
10:30am 7 9 mph 1013.5mb 50f
10:20am 8 9 mph 1013.5mb 49f
10:10am 8 9 mph 1013.5mb 49f
10:00am 6 8 mph 1013.5mb 52f
9:50am 8 10 mph 1013.5mb 55f
9:40am 9 10 mph 1013.5mb 52f
9:30am 7 10 mph 1013.5mb 52f
9:20am 10 11 mph 1013.5mb 51f
9:10am 8 9 mph 1013.5mb 54f
9:00am 5
mph
1013.2mb 58f
8:50am 5 8 mph 1013.2mb 55f
8:40am 8
mph
1013.2mb 56f
8:30am 3 5 mph 1012.9mb 57f
8:20am 3 6 mph 1012.9mb 54f
8:10am 5 7 mph 1013.2mb 54f
8:00am 6
mph
1013.2mb 53f
7:50am 5 8 mph 1013.2mb 50f
7:40am 5 8 mph 1013.2mb 55f
7:30am 7 10 mph 1013.2mb 55f
7:20am 8 11 mph 1012.9mb 56f
7:10am 10
mph
1012.9mb 56f
7:00am 7 8 mph 1012.9mb 55f
6:40am 8 11 mph 1012.9mb 54f
6:30am 10 13 mph 1012.9mb 53f
6:20am 9 11 mph 1012.9mb 50f
6:10am 9 10 mph 1012.5mb 57f
6:02am 9 14 mph 1012.5mb 56f
6:00am 8 11 mph 1012.5mb 56f
5:50am 10 14 mph 1012.5mb 54f
5:40am 9 13 mph 1012.5mb 54f
5:30am 9 14 mph 1012.5mb 53f
5:20am 11 13 mph 1012.5mb 52f
5:10am 10 13 mph 1012.9mb 54f
5:02am 8 13 mph 1012.9mb 55f
5:00am 8 10 mph 1012.9mb 55f
4:50am 7 9 mph 1012.9mb 60f
4:40am 8 13 mph 1012.9mb 61f
4:30am 8 11 mph 1012.5mb -
4:20am 7 11 mph 1012.9mb 59f
4:10am 9 11 mph 1012.5mb 56f
4:02am 9 15 mph 1012.9mb 52f
4:00am 10 11 mph 1012.9mb 52f
3:50am 10 15 mph 1012.9mb 53f
3:40am 14
mph
1012.9mb 54f
3:30am 11
mph
1012.5mb 57f
3:20am 10 11 mph 1012.9mb 58f
3:10am 7 10 mph 1012.9mb 57f
3:01am 9 15 mph 1012.9mb 57f
3:00am 9 10 mph 1012.9mb 57f
2:50am 10 14 mph 1012.9mb 56f
2:40am 11 13 mph 1013.2mb 57f
2:30am 9 11 mph 1013.2mb 57f
2:20am 9 14 mph 1013.2mb 53f
2:10am 13 15 mph 1013.2mb 54f
2:01am 13 16 mph 1013.5mb 53f
2:00am 13 16 mph 1013.2mb 53f
1:50am 10 14 mph 1013.5mb 53f
1:40am 6 8 mph 1013.2mb 54f
1:30am 8 13 mph 1013.5mb 55f
1:20am 11 14 mph 1013.5mb 55f
1:10am 14 15 mph 1013.5mb 55f
1:00am 14 16 mph 1013.9mb 54f
12:50am 11 14 mph 1013.5mb 55f
12:40am 11 13 mph 1013.9mb 54f
12:30am 13 14 mph 1013.9mb 54f
12:20am 11 16 mph 1014.2mb 55f
12:10am 11 13 mph 1014.2mb 55f
12:00am 10 15 mph 1014.2mb 55f
Wed 06/29 11:50pm 9 13 mph 1013.9mb 54f
11:40pm 8 14 mph 1013.9mb 51f
11:30pm 13 15 mph 1013.5mb 52f
11:20pm 11 13 mph 1014.2mb 53f
11:10pm 5 7 mph 1014.2mb 55f
11:00pm 8 9 mph 1014.6mb 55f
10:50pm 8 10 mph 1014.6mb 54f
10:40pm 3 6 mph 1014.6mb 53f
10:30pm 5 10 mph 1014.6mb 52f
10:20pm 7 9 mph 1014.9mb 55f
10:10pm 6 7 mph 1015.2mb 57f
10:00pm 2 7 mph 1015.2mb 57f
9:50pm 3 5 mph 1014.9mb 57f
9:40pm 2 3 mph 1015.2mb 58f
9:30pm  -  2 mph 1014.9mb 58f
9:20pm 1 8 mph 1015.2mb 58f
9:10pm 5 7 mph 1014.9mb 60f
9:00pm 6 10 mph 1014.9mb 61f
8:50pm 10 13 mph 1014.9mb 59f
8:40pm 5 18 mph 1014.9mb -
8:30pm 10 20 mph 1014.9mb -
8:20pm 13 25 mph 1014.9mb -
8:10pm 17 26 mph 1014.9mb -
8:00pm 20 29 mph 1014.9mb -
7:50pm 5 11 mph 1014.9mb 54f
7:40pm 10 13 mph 1013.9mb 54f
7:30pm 10 14 mph 1013.9mb 55f
7:20pm 11 15 mph 1013.9mb 54f
7:10pm 15 17 mph 1013.9mb 54f
7:00pm 16 17 mph 1013.5mb 55f
6:50pm 16 18 mph 1013.5mb 56f
6:40pm 18 20 mph 1013.5mb 56f
6:30pm 20 21 mph 1013.5mb 58f
6:20pm 20 21 mph 1013.5mb 56f
6:10pm 20 21 mph 1013.5mb 57f
6:00pm 20 22 mph 1013.9mb 59f
5:40pm 21 22 mph 1013.9mb 57f
5:30pm 21 22 mph 1013.9mb 57f
5:20pm 20 23 mph 1013.9mb 56f
5:10pm 20 22 mph 1013.9mb 57f
5:00pm 20 22 mph 1013.9mb 57f
4:50pm 21 23 mph 1014.2mb 57f
4:40pm 21 23 mph 1014.2mb 58f
4:30pm 20 23 mph 1014.2mb 57f
4:20pm 21 22 mph 1014.2mb 58f
4:10pm 21 22 mph 1014.2mb 58f
4:03pm 21 23 mph 1014.2mb 58f
4:00pm 21 22 mph 1014.6mb 58f
3:50pm 20 22 mph 1014.6mb 58f
3:40pm 21 22 mph 1014.9mb 59f
3:30pm 20 22 mph 1014.9mb 59f
3:20pm 20 22 mph 1014.9mb 59f
3:10pm 21 23 mph 1014.9mb 60f
3:03pm 21 25 mph 1015.2mb 60f
3:00pm 22 23 mph 1015.2mb 60f
2:50pm 22 24 mph 1015.2mb 59f
2:40pm 21 24 mph 1015.2mb 58f
2:30pm 23 25 mph 1015.9mb 60f
2:20pm 22 24 mph 1015.9mb 60f
2:10pm 21 22 mph 1015.9mb 57f
2:02pm 22 23 mph 1015.9mb 56f
2:00pm 21 22 mph 1016.3mb 56f
1:50pm 20 22 mph 1016.3mb 56f
1:40pm 21 23 mph 1016.3mb 56f
1:30pm 21 22 mph 1016.3mb 55f
1:20pm 21 23 mph 1016.6mb 57f
1:10pm 21 22 mph 1016.6mb 55f
1:02pm 20 23 mph 1016.6mb 55f
1:00pm 20 23 mph 1016.6mb 55f
12:50pm 21 22 mph 1016.6mb 55f
12:40pm 20 23 mph 1016.6mb 55f
12:30pm 21 22 mph 1016.6mb 56f
12:20pm 20 22 mph 1016.9mb 54f
12:10pm 20 21 mph 1016.9mb 55f
12:02pm 20 23 mph 1017.3mb 54f
12:00pm 20 22 mph 1017.3mb 54f
11:50am 21 23 mph 1017.3mb 55f
11:40am 20 22 mph 1017.3mb 55f
11:30am 21 23 mph 1017.3mb 55f
11:20am 18 21 mph 1017.3mb 54f
11:10am 16 20 mph 1017.6mb 53f
11:01am 16 23 mph 1017.6mb 54f
11:00am 16 21 mph 1017.6mb 54f
10:50am 16 20 mph 1017.6mb 54f
10:40am 16 18 mph 1017.6mb 53f
10:30am 16 20 mph 1017.6mb 53f
10:20am 18 23 mph 1017.6mb 54f
10:10am 17 21 mph 1017.9mb 53f
10:01am 18 21 mph 1017.9mb 55f
10:00am 18 21 mph 1017.9mb 55f
9:50am 17 21 mph 1017.9mb 54f
9:40am 17 21 mph 1017.9mb 51f
9:30am 18 21 mph 1017.9mb 51f
9:20am 18 20 mph 1017.9mb 51f
9:10am 18 20 mph 1018.3mb 51f
9:00am 17 18 mph 1018.3mb 52f
8:50am 16 17 mph 1018.3mb 53f
8:40am 16 17 mph 1018.3mb 53f
8:30am 16 17 mph 1018.3mb 53f
8:20am 13 16 mph 1018.6mb 52f
8:10am 15 17 mph 1019.6mb 52f
8:00am 14 16 mph 1018.6mb 53f
7:50am 14 16 mph 1018.6mb 53f
7:40am 14 15 mph 1018.6mb 53f
7:30am 10 13 mph 1018.6mb -
7:20am 10 11 mph 1018.6mb 59f
7:10am 8 9 mph 1018.6mb 60f
7:00am 8 18 mph 1018.6mb 65f
6:40am 10 16 mph 1018.6mb 62f
6:30am 11 17 mph 1018.6mb 61f
6:20am 9 16 mph 1018.6mb 61f
6:10am 11 17 mph 1018.6mb 61f
6:00am 14 18 mph 1018.6mb 60f
5:50am 13 17 mph 1018.6mb 60f
5:40am 11 17 mph 1018.6mb 60f
5:30am 14 18 mph 1018.6mb 60f
5:20am 13 17 mph 1018.6mb 60f
5:10am 11 17 mph 1018.6mb 60f
5:00am 14 20 mph 1018.6mb -
4:50am 10 16 mph 1019mb 59f
4:40am 7 10 mph 1019mb 52f
4:30am 5 7 mph 1019mb 52f
4:20am 5 7 mph 1019mb 52f
4:10am 3 7 mph 1019mb 52f
4:00am 6 8 mph 1019.3mb 53f
3:50am 6 8 mph 1019mb 52f
3:40am 6 8 mph 1019.3mb 51f
3:30am 6 8 mph 1019.3mb 49f
3:20am 7 8 mph 1019.3mb 49f
3:10am 6 8 mph 1019.6mb 48f
3:00am 7 8 mph 1019.6mb 48f
2:50am 7
mph
1019.6mb 49f
2:40am 5 8 mph 1019.6mb 48f
2:30am 6 8 mph 1019.6mb 49f
2:20am 3 6 mph 1019.6mb 50f
2:10am 6 7 mph 1020mb 49f
2:00am 3 5 mph 1019.6mb 49f
1:50am 2 5 mph 1019.6mb 49f
1:40am 3 5 mph 1019.6mb 49f
1:30am 1 2 mph 1019.3mb 51f
1:20am  -  1 mph 1019.3mb 51f
1:10am  -  5 mph 1019.3mb 50f
1:00am 3 9 mph 1019mb 51f
12:50am 2 6 mph 1019.3mb 51f
12:40am 3 5 mph 1019.3mb 50f
12:30am 3 7 mph 1019mb 51f
12:20am 3 7 mph 1019mb 52f
12:10am 5 8 mph 1019.3mb 51f
12:00am 5 7 mph 1019.3mb 49f
Tue 06/28 11:50pm 3 7 mph 1019.3mb 48f
11:40pm 5 8 mph 1019.3mb 48f
11:30pm 2 7 mph 1019.3mb 50f
11:20pm 5 7 mph 1019.3mb 50f
11:10pm 2 7 mph 1019.3mb 51f
11:00pm 1 7 mph 1019.6mb 50f
10:50pm 5 7 mph 1019.6mb 50f
10:40pm 3 6 mph 1019.6mb 50f
10:30pm 3 8 mph 1020mb 50f
10:20pm 3 7 mph 1020mb 49f
10:10pm 2 7 mph 1020mb 50f
10:00pm 3 8 mph 1020mb 50f
9:50pm 1 5 mph 1020mb 50f
9:40pm 3 5 mph 1020mb 50f
9:30pm 1 2 mph 1019.6mb 51f
9:20pm 2 5 mph 1019.6mb 52f
9:10pm 2 6 mph 1019.6mb 52f
9:00pm 3 6 mph 1019.6mb 55f
8:50pm  -  3 mph 1019.6mb 60f
8:40pm 3 8 mph 1019.6mb 63f
8:30pm 5 8 mph 1019.6mb 60f
8:20pm 6 9 mph 1019.6mb 61f
8:10pm 6 8 mph 1019.6mb 62f
8:04pm 6 14 mph 1019.6mb 62f
8:00pm 7 8 mph 1019.6mb 62f
7:50pm 7 9 mph 1019.6mb 61f
7:40pm 8 9 mph 1019.6mb 61f
7:30pm 9 11 mph 1019.6mb 63f
7:20pm 10 14 mph 1019.6mb 64f
7:10pm 13 14 mph 1019.6mb 61f
7:04pm 10 16 mph 1020mb 60f
7:00pm 10 13 mph 1020mb 60f
6:50pm 11 15 mph 1020mb 60f
6:40pm 11 15 mph 1020.3mb 59f
6:30pm 13 16 mph 1020.3mb 57f
6:20pm 14 16 mph 1020.3mb 56f
6:10pm 13 15 mph 1020.7mb 55f
6:03pm 13 14 mph 1020.7mb 56f
6:00pm 11 14 mph 1021mb 56f
5:50pm 11 13 mph 1021mb 57f
5:40pm 11 13 mph 1021mb 58f
5:30pm 11 14 mph 1021.3mb 59f
5:20pm 13 14 mph 1021mb 59f
5:10pm 13 14 mph 1021mb 58f
5:03pm 13 16 mph 1021.3mb 56f
5:00pm 13 15 mph 1021.3mb 56f
4:50pm 14 15 mph 1021.3mb 56f
4:40pm 14 15 mph 1021.7mb 56f
4:30pm 14 15 mph 1021.7mb 56f
4:20pm 14 15 mph 1021.7mb 56f
4:10pm 15 16 mph 1022mb 56f
4:02pm 15 18 mph 1022mb 56f
4:00pm 15 16 mph 1022mb 56f
3:50pm 14 17 mph 1022.4mb 57f
3:40pm 17
mph
1022.4mb 57f
3:30pm 16 18 mph 1022.4mb 57f
3:20pm 17 18 mph 1022.4mb 55f
3:10pm 16 17 mph 1022.7mb 55f
3:02pm 16 18 mph 1022.7mb 55f
3:00pm 15 16 mph 1022.7mb 55f
2:50pm 15 17 mph 1022.7mb 55f
2:40pm 16 18 mph 1023mb 55f
2:30pm 17 18 mph 1023mb 55f
2:20pm 16 17 mph 1023mb 55f
2:10pm 16 17 mph 1023mb 55f
2:02pm 16 17 mph 1023.4mb 54f
2:00pm 17
mph
1023.4mb 54f
1:50pm 15 16 mph 1023.4mb 52f
1:40pm 15 16 mph 1023.4mb 51f
1:30pm 14 16 mph 1023.4mb 54f
1:20pm 15 16 mph 1023.4mb 54f
1:10pm 14 16 mph 1023.7mb 55f
1:01pm 15 17 mph 1023.7mb 52f
1:00pm 15 17 mph 1023.7mb 52f
12:50pm 15
mph
1023.7mb 53f
12:40pm 14 15 mph 1023.7mb 53f
12:30pm 14 15 mph 1023.7mb 52f
12:20pm 14 15 mph 1024mb 52f
12:10pm 13 15 mph 1024mb 53f
12:01pm 15 18 mph 1024mb 52f
12:00pm 15
mph
1024mb 52f
11:50am 15 17 mph 1024mb 51f
11:40am 16 18 mph 1024mb 51f
11:30am 16 17 mph 1024mb 51f
11:20am 16 17 mph 1024mb 52f
11:10am 14 16 mph 1024mb 53f
11:00am 11 14 mph 1024mb 52f
10:50am 10 13 mph 1024.4mb 49f
10:40am 9 10 mph 1024.4mb -
10:30am 9 11 mph 1024.4mb -
10:20am 11 13 mph 1024.4mb -
10:10am 10 14 mph 1024.4mb -
10:00am 11 15 mph 1024.4mb -